Regional Weather Roundup
Issued by NWS Wakefield, VA

Home | Current Version | Previous Version | Text Only | Print | Product List | Glossary Off
Versions: 1 2 3 4 5 6 7 8 9 10 11 12 13 14 15 16 17 18 19 20 21 22 23 24 25 26 27 28 29 30 31 32 33 34 35 36 37 38 39 40 41 42 43 44 45 46 47 48 49 50

000
ASUS41 KAKQ 301710
RWRAKQ

REGIONAL WEATHER ROUNDUP
NATIONAL WEATHER SERVICE WAKEFIELD VA
100 PM EDT TUE SEP 30 2014

Note: "fair" indicates few or no clouds below 12,000 feet with no
significant weather and/or obstructions to visibility. * = Denotes
station may not report precipitation (e.g., rain,snow,etc.),
thunder or fog.

VAZ042-051-052>054-056-301800-
NORTHERN VIRGINIA

CITY           SKY/WX    TMP DP  RH WIND       PRES   REMARKS
WASH NATIONAL  CLOUDY    71  60  68 VRB5      29.94S
DULLES         CLOUDY    66  61  84 CALM      29.93F
FORT BELVOIR   CLOUDY    68  62  80 VRB2      29.93F
QUANTICO       CLOUDY    67  61  81 S5        29.94S
FREDERICKSBRG* CLOUDY    68  64  85 E3        29.92F
STAFFORD*      CLOUDY    68  67  96 CALM      29.97S
WARRENTON      CLOUDY    68  66  93 E3        29.92F
CULPEPER*      CLOUDY    68  61  77 CALM      29.93F
MANASSAS*      CLOUDY    66  63  88 CALM      29.94S
LEESBURG*      CLOUDY    68  64  88 SW3       29.94F
WINCHESTER     SUNNY     77  59  53 SE6       29.90F
FRONT ROYAL*   MOSUNNY   75  61  60 E7        29.89F
LURAY*         SUNNY     79  59  50 CALM      29.89F
$$

VAZ048-049-060>072-079>083-301800-
CENTRAL AND SOUTH CENTRAL VIRGINIA...AND NORTH CENTRAL NORTH CAROLINA

CITY           SKY/WX    TMP DP  RH WIND       PRES   REMARKS
RICHMOND       CLOUDY    71  61  70 VRB3      29.92S
CHESTERFIELD*  CLOUDY    70  55  60 S3        29.94S
PETERSBURG*    CLOUDY    69  61  75 CALM      29.93S
HANOVER        CLOUDY    71  62  73 VRB3      29.93F
TAPPAHANNOCK*  CLOUDY    70  61  72 CALM      29.93F
CHARLOTTSVILLE CLOUDY    67  62  84 VRB3      29.93S HAZE
ORANGE*        CLOUDY    68  61  77 CALM      29.94F
LOUISA*        CLOUDY    66  63  88 CALM      29.92F
FARMVILLE*     CLOUDY    70  66  88 SE3       29.91S
CREWE*         CLOUDY    68  61  77 CALM      29.92F
FORT PICKETT*  CLOUDY    69  62  80 CALM      29.92F
LUNENBURG*     CLOUDY    67  63  87 CALM      29.92F
SOUTH HILL*    CLOUDY    70  64  83 CALM      29.97F
LAWRENCEVILLE* CLOUDY    68  64  87 CALM      29.91F
ROANOKE RAPIDS CLOUDY    64  63  94 CALM      29.92F
RALEIGH        CLOUDY    66  61  84 CALM      29.93F
$$

VAZ088>098-301800-
SOUTHEAST VIRGINIA

CITY           SKY/WX    TMP DP  RH WIND       PRES   REMARKS
NORFOLK        SUNNY     73  62  68 NE7       29.90F
VIRGINIA BEACH MOSUNNY   77  62  59 NE6       29.89F
NORFOLK NAVAL  MOSUNNY   75  61  61 E7        29.92F
WEST POINT*    CLOUDY    71  62  71 CALM      29.93F
NEWPORT NEWS   PTSUNNY   77  61  57 E8        29.91S
LANGLEY AFB    SUNNY     73  65  75 NE6       29.92S
FORT EUSTIS    MOSUNNY   72  72 100 W8        29.90S
WILLIAMSBURG*  SUNNY     73  66  78 SE3       29.93S
HR EXEC AP*    SUNNY     75  63  64 NE5       29.92F
FRANKLIN*      MOSUNNY   72  64  78 W5        29.91F
WAKEFIELD      CLOUDY    71  64  78 VRB7      29.91F
$$

VAZ020-022-025-037-045-301800-
WEST CENTRAL AND SOUTHWEST VIRGINIA

CITY           SKY/WX    TMP DP  RH WIND       PRES   REMARKS
STAUNTON*      SUNNY     79  52  37 E6        29.93F
HOT SPRINGS VA MOSUNNY   66  40  38 W9        30.04F
LYNCHBURG      MOSUNNY   74  63  68 CALM      29.92F
DANVILLE       SUNNY     73  63  70 CALM      29.92F
SOUTH BOSTON*  NOT AVBL
MARTINSVILLE   SUNNY     81  63  54 CALM      29.95F
ROANOKE        MOSUNNY   78  60  53 VRB3      29.94F
BLACKSBURG     SUNNY     73  64  73 W6        29.99F
DUBLIN*        MOSUNNY   73  65  74 CALM      29.99F
MARION*        MOSUNNY   71  54  55 NW3       30.03S
HILLSVILLE*    MOSUNNY   71  55  56 N8        30.00S
RICHLANDS*     PTSUNNY   74  56  52 N6        30.01F
WISE*          SUNNY     73  50  43 NW8       30.03F
ABINGDON*      PTSUNNY   73  60  64 CALM      30.00F
$$

MDZ021>025-VAZ099-100-301800-
SOUTHERN MARYLAND AND THE DELMARVA PENINSULA

CITY           SKY/WX    TMP DP  RH WIND       PRES   REMARKS
PATUXENT RIVER MOSUNNY   72  62  71 VRB6      29.91F
BAY BRIDGE APT   N/A     70  63  78 NW6       29.92F
LEONARDTOWN    PTSUNNY   72  59  64 CALM      29.93F
DOVER          SUNNY     73  60  64 E6        29.91F
GEORGETOWN     PTSUNNY   75  59  57 E9G16     29.92F
EASTON         MOSUNNY   77  61  57 CALM      29.95F
CAMBRIDGE      SUNNY     77  61  57 CALM      29.91F
SALISBURY      SUNNY     77  60  55 CALM      29.91F
OCEAN CITY     SUNNY     73  61  65 E9        29.92F
WALLOPS ISLAND MOSUNNY   75  64  68 E14       29.92S
ACCOMACK*      MOSUNNY   73  57  56 CALM      29.90F
$$

NCZ012>017-030>032-301800-
EASTERN NORTH CAROLINA

CITY           SKY/WX    TMP DP  RH WIND       PRES   REMARKS
ELIZABETH CITY SUNNY     76  63  64 NE7       29.89F
AHOSKIE*       MOSUNNY   69  63  83 N5        29.91F
EDENTON*       MOSUNNY   76  65  69 S8        29.89F
CURRITUCK*     NOT AVBL
KILL DEVIL HLS MOSUNNY   75  63  67 NE9       29.89S
MANTEO         SUNNY     74  64  71 NE10      29.90S
CAPE HATTERAS  SUNNY     72  65  78 N10       29.87F
TARBORO*       PTSUNNY   74  65  74 N5        29.92F
GOLDSBORO      MOSUNNY   76  67  74 CALM      29.88F
WASHINGTON     MOSUNNY   75  63  65 N6        29.89F
GREENVILLE     MOSUNNY   77  63  61 NW3       29.92F
NEW BERN       SUNNY     78  63  59 VRB3      29.89F
WILMINGTON     SUNNY     78  63  59 N10       29.88F
$$

VAZ048-301800-
ELSEWHERE

CITY           SKY/WX    TMP DP  RH WIND       PRES   REMARKS
HARRISBURG PA  PTSUNNY   71  61  70 CALM      29.91F
BALTIMORE      MOSUNNY   74  61  63 CALM      29.92S
ANNAPOLIS      SUNNY     71  62  73 SE9       29.92S
ANDREWS AFB    MOSUNNY   70  61  73 VRB5      29.93S
WILMINGTON DE  SUNNY     73  60  63 S5        29.94S
PHILADELPHIA   MOSUNNY   77  55  46 SE6       29.93F
WILDWOOD NJ*   SUNNY     73  57  56 E8        29.94F
ATLANTIC CITY  MOSUNNY   73  56  54 E8        29.93F
HENDERSON NC   CLOUDY    67  62  83 CALM      29.93F
GREENSBORO     MOSUNNY   74  65  73 CALM      29.92F
ROCKY MOUNT    CLOUDY    69  63  81 NW3       29.92F
FAYETTEVILLE   SUNNY     76  62  62 VRB5      29.90F
CHARLOTTE      MOSUNNY   77  62  59 VRB3      29.93F
$$

VAZ100-301800-
MARINE

STATION/POSITION TIME  TEMP    WIND        PRES    WAVE   SWELL
                       AIR SEA DIR/SP/G            HT/PER HT/PER
                 (UTC) (F)     (DEG/KT/KT) (MB)    (FT/S) (FT/S)
44066 TX TWR #4  1700   68 69   50/ 14/ 16 1013.0S   2/14   2/14
CAPE MAY NJ      1700   72 74   80/  4/  7 1013.0F
LEWES DE         1700   69 70   70/  9/ 10 1013.2F
15NM E FENWICK I 1700   69 70              1012.9F   2/ 8
OCEAN-CITY-INLET 1700   71 71   80/  6/  9 1012.8F
WACHAPREAGUE VA  1700   71 73   70/  7/  9 1012.9S
THOMAS POINT MD  1700   68 72  200/  3/  4 1014.2F
GOOSES REEF MD   1700   69      CALM  /  2 1013.8F
COVE POINT MD    1700   69     180/  4/  5 1013.1S
SOLOMONS ISLAND  1700      72                N/A
BISHOPS HEAD MD  1700   70 72   90/  3/  5 1012.6F
PINEY POINT MD   1700          270/  3/  4   N/A
POTOMAC MD       1700   68     290/  4/  4 1012.6F
CAMBRIDGE MD     1700   71 71   20/  4/  5 1012.6F
LEWISETTA VA     1700   68 71   90/  3/  4 1012.8S
RAPPAHANNOCK LGT 1700          350/  6/  8 1013.3F
STINGRAY PT      1700   68      20/  4/  4   N/A
YORK RVR RNG VA  1700   70     100/  4/  5 1012.5F
YORKTOWN VA      1700   71 72  350/  2/  2 1012.6F
JAMESTOWN VA     1700   67     180/  6/  8   N/A
DOMINION TERM VA 1700   69     130/  2/  4 1013.0S
KIPTOPEKE VA     1700      76  310/  5/  7   N/A
CHES BAY BRIDGE  1700   69 72   40/  3/  4 1012.4S
CHESAPEAKE LGHT  1600   70      10/  8/  9 1013.4F
WILLOUBY STN VA  1700   69      80/  7/  7 1011.7S
S CRANEY ISL VA  1700           10/  6/  7 1012.4F
CAPE HENRY BUOY  1700      74                N/A     2/14   2/14
1ST LANDING BUOY 1700   71      80/  6/  8 1012.6S
CAPE CHARLES BUO 1700      73                N/A     2/14   2/14
OFFSHORE WE BUOY 1700      73                N/A     2/14   2/14
64NM E OF VA BCH 1700   70 72   40/  6/  8 1011.9S   2/ 8   2/ 8
DUCK PIER NC     1700   71 73   10/  9/ 10 1011.6F
44100 DUCK FRF   1600      72                N/A     2/ 8
44056 DUCK FRF   1700                        N/A     2/14   2/14
OREGON INLET NC  1700   73 73   10/  9/ 13 1011.9F
HATTERAS NC      1700   72 73   20/ 13/ 15 1011.9F
DIAMOND SHLS NC  1700   74     360/ 17/ 21 1010.6F   3/ 8   2/ 8
CAPE LOOKOUT NC  1600   73      30/ 13/ 15 1011.6F
$$



USA.gov is the U.S. government's official web portal to all federal, state and local government web resources and services.